Tracking 31027 objects as of 19-Jul-2025
HD Live streaming from Space Station
objects crossing your sky now

TITAN 4B R/B

Track TITAN 4B R/B now!
10-day predictions
TITAN 4B R/B is classified as:


NORAD ID: 26474
Int'l Code: 2000-047B
Perigee: 518.6 km
Apogee: 584.2 km
Inclination: 68.0 °
Period: 95.5 minutes
Semi major axis: 6922 km
RCS: 15.6118 m2 (large)
Launch date: August 17, 2000
Source: United States (US)
Launch site: AIR FORCE WESTERN TEST RANGE (AFWTR)

Note: This is a ROCKET BODY
Your satellite tracking list
STARLINK-3957
Track 1 satellite(s)




NASA's NSSDC Master Catalog

Two Line Element Set (TLE):
1 26474U 00047B   25199.89385952  .00002290  00000-0  15614-3 0  9992
2 26474  67.9910 336.7656 0047440 300.3131  59.3328 15.07360830357652
Source of the keplerian elements: AFSPC